Location: Briis
(48.6240°N, 2.1211°E)
Time: 19:17:13
(UTC+00:00)

Meteor 1-4 Rocket - Pass Details

Date: 25 September 2020
Orbit: 450 x 501 km, 81.2° (Epoch: 22 October)

Event Time Altitude Azimuth Distance (km) Brightness Sun altitude
Exits shadow 04:20:57 21° 291° (WNW) 1,091 3.9 -14.2°
Maximum altitude 04:20:58 21° 292° (WNW) 1,091 3.9 -14.2°
Drops below altitude 10° 04:23:46 10° 344° (NNW) 1,635 5.2 -13.8°
Sets 04:26:15 0° 0° (N) 2,528 6.4 -13.4°
